GFSFLT2_prec_cloud_090.txt.gz
Cloud_Cover
100 100 99 100 100 97 100 100 100 97 5 6 100 100 100 100 100 100 100 100 89 99 93 100 17 18 5 5 25 86 31 5
100 100 100 100 100 100 100 100 100 97 21 10 100 100 100 100 100 100 100 100 100 100 65 48 99 31 96 61 75 84 22 30
100 100 100 100 100 100 100 100 100 100 22 29 100 100 100 100 100 100 100 100 99 58 5 7 63 50 16 70 5 15 5 66
100 100 100 100 98 100 100 100 100 100 100 100 100 100 100 100 100 100 100 100 68 5 4 5 6 5 8 100 77 100 77 87
100 100 100 100 100 100 100 100 100 100 100 100 100 100 100 100 100 100 80 98 12 7 5 13 12 100 39 79 99 100 100 100
100 100 100 100 100 100 100 100 100 100 100 100 100 100 100 100 92 33 98 75 5 5 7 63 33 66 98 100 100 100 100 100
100 100 100 100 100 100 100 100 100 100 100 100 100 100 98 100 100 59 100 96 16 83 100 98 87 100 100 100 100 100 100 100
100 100 100 100 100 100 100 100 100 100 100 100 100 100 86 93 94 62 100 100 5 56 76 96 98 100 100 100 82 88 68 34
100 100 100 100 100 100 100 100 100 100 100 100 100 100 100 99 100 83 69 6 12 87 100 100 100 86 95 100 39 7 10 67
100 100 100 100 100 100 100 100 100 100 100 100 100 100 100 88 92 98 100 100 100 100 97 100 86 51 6 65 39 24 50 100
100 100 100 100 100 100 100 100 100 100 100 100 100 100 100 100 100 100 100 100 100 100 100 100 76 84 40 100 100 100 100 96
100 100 100 100 100 100 100 100 100 100 100 100 100 100 100 100 100 100 100 100 100 100 100 100 86 92 86 100 100 100 100 100
100 100 100 100 100 100 100 100 100 100 100 100 100 100 100 100 100 100 100 100 100 100 100 100 94 100 100 94 100 100 100 100
100 100 100 100 100 100 100 100 100 100 100 100 100 100 100 100 100 100 100 100 100 100 100 100 100 100 100 100 100 100 100 100
100 100 100 100 100 100 100 100 100 100 100 100 100 100 100 100 100 100 100 100 98 100 100 100 100 100 100 100 100 100 100 100
100 100 100 100 100 100 100 100 100 100 100 100 100 100 100 100 100 100 100 100 100 100 100 100 100 100 100 100 100 100 100 100
92 89 100 100 100 100 100 100 100 100 100 100 100 100 100 100 100 100 100 100 100 100 100 100 100 100 100 100 100 100 100 100
99 65 100 100 100 96 100 100 100 100 100 100 100 100 100 100 100 100 100 100 100 100 100 100 100 100 100 100 100 100 100 100
99 86 64 100 100 100 100 98 100 100 100 100 100 100 100 100 100 100 100 100 100 100 100 100 100 100 100 100 100 100 100 100
100 100 100 53 70 100 100 100 81 100 100 100 100 100 100 100 100 100 100 100 100 100 100 100 100 100 100 100 100 100 100 92

GFSFLT2_prec_cloud_093.txt.gz
Cloud_Cover
100 100 100 100 95 100 100 100 100 100 100 100 94 30 64 100 99 60 37 100 100 100 100 100 45 74 70 43 4 3 5 10
100 100 100 98 93 96 100 100 100 100 100 100 90 81 88 100 40 65 100 100 100 100 100 94 100 73 98 6 5 5 5 5
100 100 100 100 100 100 100 100 100 100 100 100 94 63 91 100 100 100 100 100 100 100 100 100 96 67 12 22 23 11 19 36
100 100 100 100 100 100 100 100 100 100 100 100 42 78 68 100 100 100 100 100 100 100 100 23 100 87 5 16 5 34 92 20
100 98 100 100 100 100 100 100 100 100 100 100 72 51 97 100 100 100 100 100 100 100 98 100 8 57 52 90 92 97 98 100
100 98 98 100 100 100 100 100 100 100 100 100 80 99 100 100 100 100 100 100 100 96 38 80 7 26 98 35 100 100 100 92
100 100 100 100 100 100 100 100 100 100 100 100 100 100 100 100 100 100 100 100 84 27 67 61 30 86 84 51 77 100 100 100
98 100 100 100 100 100 100 100 100 100 100 100 100 100 100 100 100 100 100 41 100 100 74 43 100 76 75 100 66 100 100 100
100 100 100 100 100 100 100 100 100 100 100 100 100 100 100 100 100 100 59 56 95 90 96 93 99 69 68 81 100 91 100 100
100 100 100 100 100 100 100 100 100 100 100 100 100 100 100 100 100 100 100 88 99 92 97 98 98 100 100 92 98 100 100 100
100 100 98 100 100 99 92 100 100 100 100 100 100 100 100 100 98 100 99 83 100 100 100 100 100 100 100 100 54 93 30 21
100 100 100 100 100 100 100 100 100 100 100 100 100 100 100 100 100 100 100 100 100 100 100 100 100 100 92 60 89 100 56 33
99 100 100 100 100 100 100 100 100 100 100 100 100 100 100 100 100 100 100 98 91 100 100 100 100 100 100 100 100 93 25 94
100 99 75 100 100 100 100 100 100 100 100 100 100 100 100 100 100 100 100 100 100 100 100 100 100 100 100 100 100 99 99 100
98 100 100 98 100 100 100 100 100 100 100 100 100 100 100 100 100 100 100 100 100 100 100 100 100 100 100 100 100 100 100 100
42 96 100 100 100 100 100 100 100 100 100 100 100 100 100 100 100 100 100 100 100 100 100 100 100 100 100 100 100 100 100 100
100 94 100 100 99 100 100 100 100 100 100 100 100 100 100 100 100 100 100 100 100 100 100 100 100 100 100 100 100 100 100 100
100 88 100 100 100 100 100 100 100 100 100 100 100 100 100 100 100 100 100 100 100 100 100 100 100 100 100 100 100 100 100 100
100 100 99 98 100 100 100 100 100 100 100 100 100 100 100 100 100 100 100 100 100 100 100 100 100 100 100 100 100 100 100 100
28 83 100 88 99 100 97 100 100 100 100 100 100 100 100 100 100 100 100 100 100 100 100 100 100 100 100 100 100 100 100 100

GFSFLT2_prec_cloud_099.txt.gz
Cloud_Cover
91 100 99 30 64 25 96 100 100 100 100 100 100 100 100 100 99 96 87 36 18 100 100 100 100 91 100 100 100 100 68 91
4 100 100 100 70 100 100 100 100 97 100 100 100 100 100 100 100 100 98 98 53 100 100 100 100 100 100 100 100 86 18 4
100 100 100 100 100 100 100 100 98 80 100 15 100 100 100 100 100 100 61 100 56 98 100 100 100 100 100 100 54 12 5 49
100 100 100 100 100 100 100 100 92 100 100 82 100 99 100 100 100 66 28 45 100 100 100 100 100 100 100 100 45 62 26 16
100 100 100 100 100 100 100 100 100 100 100 100 100 100 100 100 98 41 51 100 100 100 100 100 100 100 100 100 80 99 96 89
100 100 100 100 100 100 100 100 100 100 100 100 100 100 100 100 100 68 53 63 95 100 100 100 100 100 89 68 25 61 100 97
29 100 100 100 100 100 100 100 100 100 100 100 100 100 100 100 100 32 8 23 73 100 100 100 100 92 99 64 75 90 98 100
67 37 100 100 100 100 100 100 100 100 100 100 100 100 100 100 48 62 16 56 99 97 100 100 100 77 100 96 43 100 91 100
7 19 100 100 100 100 100 100 100 100 100 100 100 100 100 100 94 100 69 93 98 96 100 100 99 96 96 92 34 93 52 55
2 8 50 100 100 100 100 100 100 100 100 100 100 100 100 100 100 100 100 100 100 100 100 100 99 100 97 98 83 62 91 66
14 81 50 98 100 100 100 100 100 100 100 100 100 100 100 100 100 100 100 100 100 100 100 100 90 94 94 99 98 100 72 100
4 48 40 100 100 100 100 100 100 100 100 100 100 100 100 100 100 100 100 100 100 100 100 100 96 97 100 50 74 97 100 100
19 59 100 97 100 100 100 100 100 100 100 100 100 100 100 100 100 100 100 100 100 100 100 100 100 100 100 99 94 100 100 100
73 79 100 93 100 100 100 100 100 100 100 100 100 100 100 100 100 100 100 100 100 100 100 100 100 98 71 100 100 100 97 97
100 48 1 99 100 100 100 100 100 100 100 100 100 100 100 100 100 100 100 100 100 100 100 95 98 100 100 100 100 100 100 96
100 92 40 66 63 100 100 100 100 100 100 100 100 100 100 100 100 100 100 100 100 100 100 100 100 100 100 100 100 100 96 98
100 75 100 100 14 100 100 100 100 100 100 100 100 100 100 100 100 100 100 100 100 100 100 100 100 100 100 100 100 100 95 100
100 100 100 100 100 89 100 100 100 100 100 100 100 100 100 100 100 100 100 100 100 100 100 100 100 100 100 100 99 90 96 100
100 100 100 100 100 100 100 100 100 100 100 100 100 100 100 100 100 100 100 100 100 100 100 100 100 100 100 100 100 100 100 100
97 100 100 100 100 100 100 98 100 100 100 100 100 100 100 100 100 100 100 100 100 100 100 100 100 100 100 100 100 100 100 100

GFSFLT2_prec_cloud_105.txt.gz
Cloud_Cover
20 27 24 31 73 84 58 91 67 100 33 100 100 100 100 100 100 100 100 100 94 100 88 94 79 74 76 100 100 100 100 100
30 29 25 52 73 48 45 100 100 100 100 100 100 98 100 100 100 100 100 100 100 100 100 11 98 7 39 100 100 100 100 76
30 30 18 15 23 21 56 100 100 100 100 100 100 100 100 100 100 100 100 100 98 89 57 16 96 5 98 100 100 100 100 100
29 22 20 24 46 61 68 100 100 100 100 100 100 100 100 100 67 74 100 100 98 84 11 13 18 29 97 100 99 100 100 100
9 5 20 72 79 100 78 100 100 100 100 100 100 100 100 100 100 100 100 100 99 70 48 52 80 92 55 94 100 100 100 100
0 0 85 100 100 100 100 97 100 100 100 100 100 100 100 88 86 100 100 92 100 99 48 87 100 80 51 100 100 100 100 100
0 6 63 100 100 100 84 100 100 100 100 100 100 100 100 100 98 100 96 100 92 100 100 96 99 86 96 100 100 100 100 96
5 22 27 49 98 100 100 100 100 100 100 100 100 100 100 100 100 100 100 100 100 100 54 99 99 97 69 100 100 100 100 94
17 14 8 20 39 100 100 100 100 100 100 100 100 100 100 100 100 100 98 92 100 91 23 32 87 50 96 100 80 56 19 42
20 17 21 17 35 94 100 100 100 100 100 100 100 100 100 100 100 100 90 100 74 81 88 100 50 59 17 56 91 91 91 51
40 32 20 30 34 88 100 100 100 100 100 100 100 100 100 100 100 100 100 100 100 53 46 27 62 89 100 92 15 7 100 92
26 33 14 21 33 100 99 100 100 100 100 100 100 100 100 100 100 99 100 89 36 81 52 80 8 65 97 100 67 94 93 84
37 60 32 50 96 100 99 100 100 100 100 100 100 100 100 100 100 100 100 100 100 100 100 100 100 100 98 100 100 100 74 100
100 61 67 41 18 59 72 87 100 100 100 100 100 100 100 100 100 100 100 100 100 100 100 100 100 100 100 100 100 100 100 100
59 60 91 25 7 76 98 99 100 100 100 100 100 100 100 100 100 100 100 100 100 85 79 100 100 100 100 100 92 98 100 100
44 100 51 6 69 64 77 100 100 100 100 100 100 100 100 100 100 100 100 86 100 99 100 100 100 100 100 98 84 99 100 100
92 85 28 25 16 88 100 87 64 100 100 100 100 100 100 100 100 100 100 100 100 100 100 100 100 100 100 100 100 100 100 100
97 100 100 79 31 74 77 78 100 100 100 100 100 100 100 100 100 100 100 100 100 100 100 100 100 100 100 100 100 100 100 100
96 100 100 100 100 92 100 97 100 100 100 100 100 100 100 100 100 100 100 100 100 100 100 100 100 100 100 100 100 100 100 100
79 100 100 100 100 100 100 100 100 100 100 100 100 100 100 100 100 100 100 100 100 100 100 100 100 100 100 100 100 100 100 100